Regional Weather Roundup
Issued by NWS

Home | Current Version | Previous Version | Text Only | Print | Product List | Glossary On
Versions: 1 2 3 4 5 6 7 8 9 10 11 12 13 14 15 16 17 18 19 20 21 22 23 24 25 26 27 28 29 30 31 32 33 34 35 36 37 38 39 40 41 42 43 44 45 46 47 48 49 50
000
ASUS44 KMEG 162110
RWRTN
TENNESSEE HOURLY STATE WEATHER ROUNDUP
NATIONAL WEATHER SERVICE MEMPHIS TN
400 PM CDT TUE SEP 16 2014

TNZ002-004-019-021-049-052-054-088>092-162200-
WEST TENNESSEE

CITY           SKY/WX    TMP DP  RH WIND       PRES   REMARKS
MEMPHIS INTL   PTSUNNY   78  67  68 N6        30.07F
NWS MEMPHIS      N/A     74 N/A N/A MISG        N/A
JACKSON        CLOUDY    76  62  62 N7        30.07F
DYERSBURG      PTSUNNY   73  54  49 NE8       30.09F
UNION CITY     CLOUDY    70  57  64 N5        30.08F
PARIS          MOSUNNY   70  55  60 NE3       30.09F
HUNTINGDON     CLOUDY    69  57  65 N7        30.09F
LEXINGTON      CLOUDY    72  61  68 E3        30.07F
SAVANNAH       PTSUNNY   75  68  78 N10       30.06F
$$

TNZ008-025-027-028-033-062-065-066-162200-
NORTH MIDDLE TENNESSEE

CITY           SKY/WX    TMP DP  RH WIND       PRES   REMARKS
NASHVILLE      PTSUNNY   73  61  65 CALM      30.08F
DICKSON        MOSUNNY   68  59  73 E5        30.09F
PORTLAND       PTSUNNY   70  55  60 N3        30.07F
CLARKSVILLE    PTSUNNY   69  56  62 NW8       30.09F
LEBANON        CLOUDY    69  62  78 NE3       30.07F
SMYRNA         MOSUNNY   74  62  66 N8        30.08F
COOKEVILLE     CLOUDY    66  64  94 CALM      30.08S
GALLATIN       CLOUDY    71  63  76 W3        30.09F
CROSSVILLE     CLOUDY    69  62  78 NW7       30.09F HAZE
$$

TNZ061-075-076-078-094-096-097-162200-
SOUTH MIDDLE TENNESSEE

CITY           SKY/WX    TMP DP  RH WIND       PRES   REMARKS
LEWISBURG      CLOUDY    69  65  87 N9        30.07F
FAYETTEVILLE   PTSUNNY   77  66  69 N7        30.05S
TULLAHOMA        N/A     73  64  73 NW8       30.07F
WINCHESTER     CLOUDY    77  68  73 N7        30.05F
MCMINNVILLE      N/A     70  70 100 N9        30.07F
COLUMBIA       CLOUDY    72  68  88 N7        30.06F
SHELBYVILLE    CLOUDY    72  66  83 N10       30.08F
$$

TNZ017-018-042-046-047-162200-
NORTHEAST TENNESSEE

CITY           SKY/WX    TMP DP  RH WIND       PRES   REMARKS
TRI CITIES     PTSUNNY   77  62  59 NW10      30.03F
ELIZABETHTON   MOCLDY    73  63  68 W10       30.03F
$$

TNZ012-013-036-069-073-074-162200-
CENTRAL EAST TENNESSEE

CITY           SKY/WX    TMP DP  RH WIND       PRES   REMARKS
KNOXVILLE      CLOUDY    78  66  66 N7        30.01F
OAK RIDGE      PTSUNNY   80  65  59 NW5       30.04F
GATLINBURG     CLOUDY    64  63  94 E3        30.04R
MORRISTOWN       N/A     72  64  78 N7        30.05S
$$

TNZ083-085-099-162200-
SOUTHEAST TENNESSEE

CITY           SKY/WX    TMP DP  RH WIND       PRES   REMARKS
CHATTANOOGA    MOSUNNY   84  68  58 N5        30.01F
$$

SKY/WX REPORTED AS FAIR MEANS FEW OR NO CLOUDS BELOW
12 THOUSAND FEET.




USA.gov is the U.S. government's official web portal to all federal, state and local government web resources and services.